Wetbulb
63.52 62.75 62.16 62.23 62.27 62.66 62.08 61.90 60.12 56.36 55.41 55.18 57.07 56.56 56.02 56.51 57.65 56.78 56.38 55.61 56.39 56.52 57.61 59.30 60.57 62.00 64.17 65.21 65.21 65.07 65.37 66.11 66.50 66.55 66.27 65.65 65.60 65.59 65.75 65.89 65.83 65.60 65.58
63.48 62.58 62.45 62.37 62.29 62.11 62.11 60.54 56.30 54.69 54.43 54.69 55.11 54.25 54.22 55.47 56.23 55.46 54.57 54.84 53.79 54.79 57.30 59.14 60.13 60.75 61.66 62.53 63.87 64.53 64.89 65.10 65.17 65.89 66.05 65.45 65.14 64.94 64.82 64.85 65.29 65.38 65.52
62.56 62.41 62.33 62.29 62.35 62.33 61.28 57.44 54.99 54.37 53.63 52.86 52.81 53.27 54.07 54.00 54.67 53.68 54.12 53.97 54.68 54.48 55.93 58.16 58.63 60.70 60.75 60.91 61.83 62.59 63.30 64.73 64.83 64.53 65.24 65.38 65.25 64.78 64.66 64.52 64.65 65.07 65.45
60.84 61.24 61.00 61.01 61.65 61.48 60.24 57.50 55.61 52.89 51.39 52.07 52.32 52.40 52.45 52.54 52.67 52.79 53.38 53.50 53.52 54.36 55.32 54.82 56.58 57.32 57.42 58.25 59.16 59.79 61.06 62.36 63.93 64.30 64.12 64.76 64.83 64.90 64.61 64.32 64.25 64.45 64.79
59.73 59.75 59.32 59.25 59.68 58.88 58.15 56.56 54.59 52.43 50.89 51.37 50.99 51.56 51.76 51.19 51.74 51.11 51.48 52.39 53.06 53.95 53.92 54.03 54.86 54.78 54.81 56.48 56.69 58.03 59.40 60.59 61.21 62.09 63.67 63.62 64.15 64.17 64.37 64.41 64.34 64.32 64.39
58.38 58.60 58.23 57.79 57.72 56.15 55.77 54.37 52.92 52.24 51.05 51.33 49.27 49.48 51.42 51.46 51.39 51.44 51.39 50.31 52.87 52.59 53.28 53.98 54.55 54.14 53.24 53.74 53.67 55.17 57.57 60.26 60.36 59.37 61.05 61.63 62.67 63.02 63.72 63.52 63.39 64.34 64.47
55.27 56.25 56.47 56.85 56.60 55.02 55.37 54.88 52.99 51.13 50.25 50.77 49.36 49.70 49.98 50.95 50.89 50.81 51.27 51.26 50.73 52.15 53.03 53.59 51.99 51.42 51.48 52.43 51.58 53.20 54.79 55.79 58.05 58.55 58.16 57.96 58.28 58.88 61.17 61.70 62.97 61.92 63.80
53.31 53.21 54.18 54.53 55.27 54.51 54.96 55.03 52.98 51.68 50.32 51.04 48.44 48.31 45.49 47.99 48.55 49.44 49.97 50.58 50.57 51.26 50.82 49.51 49.33 48.78 48.77 50.04 51.69 51.73 52.81 53.71 54.95 56.40 56.45 55.01 56.19 57.50 59.35 60.35 61.58 62.72 62.32
52.75 52.67 52.59 52.65 53.63 54.10 52.88 54.47 54.06 52.47 50.44 50.96 50.06 48.48 44.88 43.16 46.92 48.36 48.23 48.16 49.83 48.66 48.40 47.92 48.00 46.78 48.23 50.30 50.20 50.62 50.56 50.44 54.19 54.72 57.17 54.82 54.05 55.50 58.16 59.73 59.86 60.85 62.82
51.60 51.16 50.73 50.74 51.41 52.36 52.63 52.89 53.74 53.36 52.10 49.83 48.39 47.58 48.05 46.58 44.02 43.47 45.58 46.44 47.07 45.75 45.89 47.81 47.26 47.09 47.43 46.57 48.72 48.93 48.50 48.80 50.25 52.55 53.55 54.82 54.41 55.21 56.62 56.55 57.83 57.18 58.97
50.17 48.90 48.37 48.68 48.97 49.39 50.37 50.82 50.98 50.80 50.45 49.61 48.23 46.89 44.82 44.13 44.19 41.18 40.22 43.00 43.16 44.33 45.46 45.86 45.30 46.92 45.69 46.84 48.14 48.26 47.43 47.78 49.28 52.03 53.03 54.62 54.62 54.37 55.04 55.66 54.84 56.28 56.39
47.37 46.23 46.47 46.84 46.37 46.26 46.34 46.50 46.22 46.11 45.97 45.71 45.10 44.38 43.77 41.17 41.30 40.21 38.65 39.00 39.83 42.76 43.50 43.76 44.48 45.17 46.61 46.37 46.50 45.93 47.42 46.71 47.55 50.41 53.19 54.38 53.60 52.94 53.65 54.12 53.60 53.31 54.09
45.56 44.88 45.11 45.80 45.68 45.97 46.04 46.06 45.45 44.94 44.49 43.74 42.94 40.97 41.94 39.87 39.69 38.66 37.02 38.05 38.73 41.64 41.50 43.57 43.81 44.94 44.61 45.46 47.29 45.08 46.73 44.35 44.76 48.00 49.04 51.67 52.37 52.60 52.39 51.57 51.07 51.96 52.30
43.85 44.74 45.34 45.84 46.29 46.36 45.87 46.08 46.11 45.06 43.17 42.12 39.92 39.62 39.13 38.60 38.64 38.50 37.65 37.14 35.63 37.78 39.85 39.85 43.03 43.43 43.80 44.36 44.78 44.74 46.76 43.05 43.76 46.06 46.41 48.45 49.66 49.34 50.24 50.04 48.69 48.57 49.81
44.13 44.34 45.00 44.57 44.69 44.65 44.49 44.24 43.29 42.51 41.67 40.89 40.28 39.79 39.40 40.15 40.07 40.00 39.34 38.55 35.50 32.42 34.77 39.22 38.98 42.61 43.24 43.49 44.16 45.35 46.77 43.89 44.30 44.44 43.49 44.80 45.21 45.51 46.20 47.31 48.41 49.29 48.47
43.65 43.25 42.21 42.13 41.96 42.00 41.85 41.19 41.04 41.49 41.01 41.07 40.59 40.40 40.33 40.03 39.82 39.63 39.16 38.86 38.16 35.49 32.22 37.46 38.21 40.19 41.75 41.08 42.60 43.77 43.93 43.80 43.80 43.25 42.32 43.28 44.08 44.32 44.71 44.78 44.67 46.93 47.42
41.70 41.18 40.87 40.89 40.48 40.00 38.95 39.20 39.39 39.01 38.59 38.71 39.14 38.71 37.67 38.32 37.53 37.82 38.26 37.70 36.62 36.27 33.25 35.82 38.30 39.81 39.65 39.93 40.62 42.13 43.03 43.09 43.49 42.81 41.89 42.18 42.25 42.31 42.71 43.34 43.26 43.24 45.25
40.98 40.64 40.26 39.89 39.44 39.02 40.21 38.76 37.36 37.06 36.30 35.77 35.98 36.12 35.58 35.63 35.97 36.49 36.31 35.75 36.09 36.66 34.87 32.93 36.18 37.28 37.97 39.72 40.59 40.82 40.91 41.86 43.04 42.07 41.74 41.96 41.85 41.58 41.68 42.40 42.44 41.86 42.30
41.57 41.23 40.33 39.54 39.37 37.98 37.36 36.59 35.78 35.36 35.37 35.21 34.80 33.90 33.48 33.36 32.83 33.60 33.52 33.41 33.78 34.24 34.64 33.25 32.92 35.72 36.55 37.49 37.31 38.29 38.81 39.82 40.38 41.04 40.77 40.43 40.55 41.20 41.54 42.58 43.03 42.43 42.27
40.33 38.96 39.81 39.91 38.27 36.31 35.37 35.33 34.85 33.99 33.30 32.69 32.55 32.50 32.12 31.65 31.19 31.51 31.47 31.60 31.82 32.01 32.28 31.65 31.65 32.39 33.78 35.37 35.54 34.40 34.85 37.41 37.26 38.07 39.03 38.15 38.90 40.21 41.40 41.98 41.91 42.42 42.83
40.18 39.65 38.86 37.40 34.91 34.17 33.77 34.40 33.21 32.40 32.03 31.63 32.20 31.71 31.60 31.35 30.93 31.17 30.97 31.61 31.92 31.08 30.74 29.87 29.20 29.99 30.52 30.84 30.60 33.62 33.20 34.94 36.15 37.68 37.16 38.73 39.30 40.07 40.60 41.39 41.29 42.19 42.11
34.74 34.26 33.37 32.59 32.56 32.69 33.45 31.93 32.60 32.60 31.77 30.91 30.09 30.45 30.55 30.27 30.34 29.68 29.94 30.17 30.81 29.85 28.55 28.45 28.50 28.03 29.75 30.57 31.33 31.31 31.38 30.73 29.24 36.93 35.14 35.52 37.81 37.57 38.96 40.60 39.13 40.18 41.42
33.08 32.31 31.96 31.97 32.08 32.30 30.71 30.93 30.35 31.01 30.26 29.61 28.81 28.54 28.45 29.20 29.70 30.23 29.68 29.42 29.18 29.50 28.78 29.21 27.87 28.58 29.04 30.64 31.07 29.81 30.81 30.61 30.32 33.77 34.25 32.11 36.58 36.32 39.00 39.07 38.95 39.05 39.34
31.16 30.87 30.96 31.02 30.26 29.88 28.61 28.70 28.57 29.61 28.99 28.47 28.30 28.33 28.37 28.81 29.52 28.62 27.89 28.21 29.12 29.92 30.25 30.04 30.10 30.20 31.48 32.05 31.75 31.51 31.46 31.57 32.52 33.20 34.38 29.32 34.84 34.36 37.65 39.54 38.23 38.56 38.78
30.23 29.98 29.53 28.99 28.39 28.36 27.46 27.24 27.54 28.34 27.65 27.22 28.04 28.73 28.64 28.22 28.54 29.09 28.13 27.77 28.51 29.38 31.09 31.67 31.89 32.08 32.00 32.00 31.96 31.62 29.66 28.52 27.83 29.20 33.05 30.79 32.34 33.57 34.35 36.66 38.82 36.75 37.01
29.16 28.79 27.58 28.22 27.29 27.18 26.68 26.60 27.04 27.47 26.20 26.24 27.51 28.35 28.10 28.26 28.14 28.61 29.13 28.20 26.85 28.01 29.23 31.58 31.37 32.00 32.22 32.71 31.77 32.02 31.48 28.05 27.37 26.91 31.62 30.06 30.07 31.07 29.84 36.41 36.47 38.45 38.38
MSLP
1019.99 1020.05 1020.11 1020.17 1020.15 1020.20 1020.19 1020.14 1020.19 1020.22 1020.17 1020.11 1020.07 1019.96 1019.82 1019.67 1019.49 1019.22 1019.21 1019.50 1019.33 1019.13 1018.82 1018.56 1018.38 1018.12 1018.03 1017.91 1017.90 1017.98 1018.04 1018.14 1018.51 1018.67 1018.81 1019.05 1019.34 1019.64 1019.92 1020.31 1020.71 1020.95 1021.53
1019.97 1019.91 1019.84 1019.77 1019.76 1019.87 1019.89 1020.03 1020.09 1020.03 1020.00 1019.98 1019.80 1019.79 1019.69 1019.55 1019.44 1019.39 1019.23 1019.16 1019.36 1019.22 1018.98 1018.66 1018.45 1018.29 1018.08 1017.94 1017.84 1017.94 1017.99 1018.00 1018.11 1018.22 1018.40 1018.59 1018.81 1019.11 1019.47 1019.76 1020.10 1020.59 1020.96
1019.88 1019.93 1019.78 1019.65 1019.54 1019.66 1019.85 1019.98 1020.03 1020.03 1019.92 1019.92 1019.75 1019.66 1019.51 1019.34 1019.18 1019.22 1019.13 1019.02 1018.83 1019.01 1019.05 1018.87 1018.60 1018.37 1018.21 1018.04 1017.97 1017.95 1017.76 1017.85 1017.94 1017.94 1017.94 1018.11 1018.22 1018.50 1018.80 1019.19 1019.51 1019.98 1020.41
1019.72 1019.67 1019.54 1019.39 1019.33 1019.56 1019.61 1019.64 1019.63 1019.62 1019.58 1019.52 1019.43 1019.32 1019.25 1019.24 1019.11 1018.98 1018.80 1018.64 1018.59 1018.58 1018.66 1018.81 1018.66 1018.50 1018.41 1018.20 1017.98 1017.80 1017.59 1017.53 1017.48 1017.51 1017.66 1017.74 1017.84 1017.88 1018.22 1018.56 1018.88 1019.19 1019.71
1019.36 1019.39 1019.13 1018.86 1019.02 1019.07 1019.19 1019.23 1019.17 1019.20 1018.88 1018.81 1018.82 1018.84 1018.81 1018.72 1018.75 1018.72 1018.59 1018.34 1018.25 1018.40 1018.43 1018.59 1018.61 1018.55 1018.45 1018.31 1018.10 1017.82 1017.56 1017.28 1017.15 1017.03 1017.00 1017.21 1017.31 1017.39 1017.52 1017.88 1018.15 1018.33 1018.80
1019.19 1019.05 1018.67 1018.48 1018.52 1018.55 1018.46 1018.56 1018.60 1018.66 1018.49 1018.11 1018.00 1017.93 1018.01 1018.07 1018.15 1018.16 1018.04 1018.06 1017.71 1017.86 1018.17 1018.35 1018.29 1018.21 1018.45 1018.24 1018.06 1017.81 1017.40 1016.89 1016.72 1016.74 1016.76 1016.77 1016.81 1016.88 1017.14 1017.41 1017.64 1017.55 1017.99
1018.95 1018.78 1018.41 1018.12 1018.06 1018.06 1017.71 1017.76 1017.97 1017.99 1017.78 1018.01 1018.10 1017.62 1017.45 1017.49 1017.54 1017.55 1017.71 1017.61 1017.59 1017.41 1017.76 1018.10 1018.18 1018.12 1017.89 1018.11 1017.94 1017.71 1017.33 1016.89 1016.48 1016.40 1016.55 1016.67 1016.69 1016.87 1016.97 1016.80 1017.04 1017.27 1016.13
1018.46 1018.28 1017.99 1017.57 1017.19 1017.18 1017.18 1017.10 1017.22 1017.06 1017.08 1017.12 1016.78 1016.95 1016.50 1016.43 1016.92 1017.12 1017.25 1017.42 1017.42 1017.30 1017.50 1017.71 1017.97 1018.11 1018.07 1017.80 1017.74 1017.63 1017.33 1017.00 1016.66 1016.29 1016.20 1016.49 1016.57 1016.39 1016.30 1016.22 1016.13 1016.53 1016.48
1018.19 1018.00 1017.76 1017.43 1017.10 1016.88 1016.51 1016.18 1016.10 1015.99 1015.65 1015.96 1016.30 1015.79 1015.63 1015.32 1015.73 1016.33 1016.88 1017.06 1017.21 1017.19 1017.39 1017.70 1017.76 1017.77 1017.81 1017.71 1017.52 1017.26 1017.03 1016.87 1016.56 1016.29 1016.10 1016.19 1016.30 1016.19 1015.93 1015.63 1015.45 1015.19 1015.48
1017.89 1017.70 1017.44 1017.10 1016.65 1016.38 1016.05 1015.65 1015.41 1015.24 1015.23 1014.90 1015.71 1015.95 1015.49 1015.66 1015.26 1015.38 1016.17 1016.56 1016.88 1016.98 1017.21 1017.35 1017.53 1017.51 1017.56 1017.40 1017.39 1017.22 1016.95 1016.63 1016.26 1016.08 1015.97 1015.90 1015.95 1015.91 1015.81 1015.55 1015.05 1015.08 1014.91
1017.77 1017.53 1017.05 1016.58 1016.21 1015.86 1015.39 1015.16 1015.02 1014.95 1014.84 1014.68 1014.60 1014.95 1015.58 1015.68 1016.31 1015.90 1015.43 1015.71 1016.83 1017.06 1017.15 1017.09 1017.25 1017.19 1017.09 1017.22 1016.99 1016.71 1016.70 1016.39 1016.02 1015.78 1015.70 1015.52 1015.60 1015.57 1015.37 1015.14 1015.03 1014.61 1014.66
1017.78 1017.64 1017.19 1016.82 1016.38 1015.96 1015.71 1015.62 1015.55 1015.54 1015.63 1015.57 1015.57 1015.32 1015.33 1015.32 1015.79 1016.69 1016.59 1016.71 1016.68 1016.63 1016.82 1016.92 1016.90 1016.61 1016.54 1016.68 1016.78 1016.68 1016.41 1016.23 1015.94 1015.59 1015.29 1015.19 1015.21 1015.02 1014.94 1015.00 1014.94 1014.67 1014.43
1017.91 1017.87 1017.62 1017.23 1016.79 1016.36 1016.18 1016.35 1016.56 1016.70 1016.71 1017.09 1017.03 1016.92 1017.29 1017.50 1017.22 1017.72 1017.75 1017.47 1016.95 1016.55 1016.49 1016.41 1016.38 1016.26 1016.26 1016.30 1016.25 1016.45 1016.06 1016.05 1015.76 1015.57 1015.42 1015.27 1015.06 1014.98 1014.99 1014.88 1014.81 1014.66 1014.28
1018.12 1018.02 1017.75 1017.45 1017.20 1016.86 1016.79 1016.43 1016.63 1016.75 1017.01 1017.52 1017.93 1017.93 1018.08 1018.06 1018.30 1018.36 1018.09 1017.73 1017.13 1016.39 1016.07 1016.10 1016.01 1016.11 1015.95 1015.88 1015.85 1016.13 1015.57 1015.75 1015.64 1015.57 1015.37 1015.45 1015.32 1015.25 1015.13 1014.84 1014.39 1014.11 1014.06
1018.25 1018.12 1017.91 1017.65 1017.74 1017.23 1017.13 1017.07 1016.96 1016.79 1016.85 1017.42 1017.43 1017.67 1017.66 1017.74 1017.73 1017.67 1017.99 1017.59 1017.36 1016.52 1015.62 1015.53 1015.53 1015.67 1015.61 1015.39 1015.45 1015.45 1015.28 1015.32 1015.36 1015.41 1015.08 1015.23 1015.31 1015.22 1015.11 1014.80 1014.48 1013.95 1013.46
1018.54 1018.43 1018.28 1018.14 1017.94 1017.85 1017.77 1017.67 1017.66 1017.46 1017.35 1017.26 1017.39 1017.40 1017.33 1017.38 1017.22 1017.04 1017.10 1016.86 1016.71 1016.24 1015.33 1015.35 1015.26 1015.45 1015.45 1015.15 1015.03 1015.13 1014.84 1015.09 1014.96 1014.86 1014.88 1014.87 1014.89 1014.76 1014.74 1014.46 1014.20 1013.80 1013.44
1018.71 1018.63 1018.57 1018.48 1018.41 1018.50 1018.35 1018.09 1017.76 1017.41 1017.19 1016.98 1017.07 1017.06 1017.01 1016.90 1016.65 1016.66 1016.56 1016.33 1016.14 1015.96 1015.36 1014.80 1014.99 1015.32 1015.28 1014.99 1014.76 1014.50 1014.30 1014.13 1014.09 1014.37 1014.39 1014.49 1014.52 1014.44 1014.23 1014.01 1014.01 1013.72 1013.21
1018.69 1018.66 1018.69 1018.56 1018.61 1018.17 1017.73 1017.74 1017.24 1017.12 1017.03 1016.86 1016.87 1016.85 1016.72 1016.68 1016.59 1016.53 1016.41 1016.19 1015.94 1015.75 1015.48 1014.87 1014.74 1014.67 1014.65 1014.42 1014.18 1014.02 1013.79 1013.61 1013.45 1013.46 1013.89 1013.90 1013.89 1013.90 1013.80 1013.54 1013.43 1013.31 1012.93
1018.93 1018.57 1018.61 1018.47 1018.13 1017.77 1017.49 1017.30 1017.19 1017.11 1017.05 1016.95 1016.95 1016.96 1016.92 1016.88 1016.67 1016.53 1016.41 1016.08 1015.81 1015.54 1015.26 1014.81 1014.32 1014.24 1014.17 1014.18 1013.83 1013.71 1013.56 1013.39 1013.14 1013.09 1013.22 1013.20 1013.18 1013.10 1012.98 1012.93 1012.77 1012.72 1012.55
1018.91 1018.64 1018.22 1018.10 1017.96 1017.57 1017.34 1017.09 1016.97 1017.01 1017.04 1017.01 1017.04 1017.02 1016.94 1016.81 1016.61 1016.37 1016.09 1015.75 1015.45 1015.09 1014.75 1014.35 1013.87 1013.52 1013.37 1013.28 1013.27 1012.99 1012.59 1012.69 1012.47 1012.38 1012.21 1012.23 1012.26 1012.22 1012.23 1012.19 1012.11 1012.00 1011.96
1018.68 1018.32 1018.04 1017.94 1017.75 1017.48 1017.16 1017.03 1017.02 1017.00 1016.95 1016.87 1016.85 1016.79 1016.64 1016.54 1016.42 1016.14 1015.71 1015.13 1014.84 1014.51 1014.15 1013.74 1013.33 1013.13 1012.74 1012.67 1012.63 1012.39 1011.89 1011.86 1011.64 1011.78 1011.58 1011.35 1011.28 1011.16 1011.15 1011.38 1011.25 1011.33 1011.40
1018.94 1018.57 1018.22 1017.99 1017.76 1017.56 1017.51 1017.42 1017.38 1017.07 1016.93 1016.75 1016.45 1016.22 1016.06 1015.88 1015.52 1015.35 1015.18 1015.00 1014.78 1014.11 1013.53 1013.19 1012.82 1012.34 1012.01 1011.97 1011.99 1011.89 1011.57 1011.36 1010.87 1011.19 1011.12 1010.87 1010.93 1010.46 1010.45 1010.30 1010.34 1010.67 1010.76
1019.16 1018.72 1018.44 1018.20 1017.94 1017.84 1017.87 1017.72 1017.57 1017.20 1016.80 1016.47 1016.19 1015.84 1015.36 1015.02 1014.84 1014.47 1014.21 1014.14 1013.94 1013.71 1013.51 1013.18 1012.47 1011.93 1011.54 1011.50 1011.45 1011.33 1011.21 1010.98 1010.59 1010.61 1010.65 1010.22 1010.33 1009.95 1009.90 1009.73 1010.02 1010.13 1010.23
1019.22 1018.82 1018.54 1018.41 1018.21 1017.97 1017.97 1017.77 1017.48 1016.93 1016.52 1016.16 1015.73 1015.15 1014.72 1014.28 1014.02 1013.99 1013.67 1013.17 1012.71 1012.37 1012.11 1011.96 1011.55 1011.20 1010.88 1010.85 1010.82 1010.77 1010.51 1010.30 1010.25 1010.21 1010.28 1009.91 1009.93 1009.74 1009.76 1009.41 1009.53 1009.68 1009.73
1019.18 1018.96 1018.79 1018.56 1018.28 1017.99 1017.92 1017.60 1017.17 1016.48 1015.89 1015.57 1015.06 1014.53 1014.13 1013.66 1013.41 1013.31 1012.92 1012.37 1011.70 1011.03 1010.75 1010.72 1010.61 1010.48 1010.35 1010.36 1010.50 1010.26 1010.03 1009.88 1009.66 1009.52 1009.54 1009.53 1009.41 1009.22 1009.23 1009.15 1009.12 1009.10 1009.21
1019.21 1019.10 1018.88 1018.61 1018.35 1017.99 1017.69 1017.30 1016.82 1016.10 1015.42 1014.81 1014.28 1013.77 1013.43 1013.17 1012.87 1012.67 1012.20 1011.63 1010.84 1010.18 1009.91 1009.54 1009.46 1009.17 1009.21 1009.18 1009.37 1009.56 1009.39 1009.05 1008.89 1008.68 1008.53 1008.72 1008.62 1008.54 1008.23 1007.87 1008.14 1008.19 1008.41
Wind_Speed
5 4 4 4 4 4 4 3 3 2 2 3 2 1 1 2 3 3 3 6 8 9 10 12 11 12 12 11 8 7 9 11 15 17 17 18 18 18 18 17 16 17 17
5 6 6 6 5 5 4 4 3 3 3 3 3 2 1 1 2 3 3 4 5 9 10 11 12 10 11 12 11 11 9 7 9 13 16 18 19 19 19 19 19 19 19
7 7 7 7 7 6 6 4 5 4 4 4 5 3 3 1 1 1 1 2 4 5 9 12 14 11 11 11 11 12 11 10 8 8 8 13 15 20 19 18 20 21 22
8 7 7 7 7 6 6 6 6 5 5 5 4 4 3 2 2 2 2 3 3 3 4 10 11 13 13 13 11 11 12 12 12 10 10 9 12 15 19 21 21 22 24
9 8 8 9 8 7 7 7 7 6 6 6 6 5 5 4 4 3 4 4 5 4 3 5 8 9 13 14 15 14 12 12 12 14 13 13 12 11 13 18 23 25 25
10 9 10 11 9 8 9 9 10 8 8 8 7 7 6 6 5 5 6 3 5 5 4 4 4 4 7 13 15 16 15 13 10 11 11 8 10 13 13 16 15 23 27
11 11 10 11 11 11 13 11 11 12 10 8 5 8 8 8 8 8 7 5 4 5 5 3 3 4 5 8 12 16 16 16 16 10 8 8 5 6 8 9 16 19 18
10 9 11 12 13 11 14 14 14 11 9 9 9 7 7 7 7 7 7 7 6 5 4 2 3 5 6 6 7 12 14 15 15 15 10 6 4 7 11 12 11 19 21
11 10 11 11 12 11 11 14 14 17 13 10 14 10 6 10 7 5 9 7 7 5 3 1 1 4 5 5 7 9 11 14 12 12 13 9 6 9 9 12 9 5 21
12 12 11 11 12 10 13 13 12 13 13 14 7 10 6 5 9 10 6 6 5 5 3 2 2 2 4 6 5 8 10 11 12 10 10 10 9 8 9 8 10 7 10
11 11 10 10 9 8 11 13 14 12 11 12 10 6 7 4 2 6 9 6 4 4 3 3 4 3 4 5 4 6 10 10 11 10 9 11 8 8 10 9 4 8 7
9 8 9 6 5 4 5 5 7 8 6 4 3 3 3 5 4 3 4 5 7 7 5 5 5 4 3 4 4 6 7 8 9 11 9 9 8 10 10 9 6 5 6
9 7 4 4 5 7 9 9 10 9 10 8 9 6 5 5 4 1 2 7 9 8 6 6 5 4 4 5 6 5 5 6 9 9 10 8 5 6 7 6 4 7 7
4 0 2 2 3 3 4 5 5 5 6 6 7 5 2 2 0 2 2 3 7 9 9 11 6 7 6 6 7 4 4 4 8 6 8 9 8 8 9 6 4 5 10
1 3 6 6 6 5 6 5 3 6 6 2 3 4 4 5 6 6 6 6 6 8 11 10 10 9 8 7 7 8 7 3 6 4 6 5 7 7 8 9 11 11 8
4 6 5 5 7 8 9 10 7 4 2 1 3 5 6 6 7 7 8 8 9 11 14 11 10 11 11 10 9 12 12 8 7 5 2 4 3 6 10 10 11 11 13
6 5 7 8 10 10 7 6 4 3 4 2 4 5 7 7 6 6 7 8 9 9 12 12 10 10 14 13 12 12 12 13 10 10 7 7 7 7 7 9 10 10 10
5 5 7 10 11 11 9 7 4 3 4 5 6 6 8 5 7 7 6 8 8 9 10 15 12 10 13 13 11 11 10 10 10 9 11 11 9 9 9 9 9 11 11
9 10 9 9 11 10 8 6 4 4 4 5 5 5 5 6 7 7 9 9 9 10 11 12 13 11 11 11 14 14 13 14 12 15 11 12 11 11 11 12 11 11 13
9 7 9 10 9 8 7 6 5 4 4 4 5 7 8 9 10 11 11 13 12 12 13 12 12 13 12 12 12 13 13 11 12 13 15 15 16 13 13 13 13 13 13
10 10 9 8 8 7 6 7 4 4 6 8 9 10 10 12 16 16 11 13 14 12 11 12 12 12 12 10 11 11 13 11 13 11 11 12 11 11 11 13 12 11 15
9 8 8 8 9 6 8 2 7 8 10 11 12 13 13 16 15 17 18 19 17 14 15 11 12 13 15 12 11 11 11 11 13 9 12 11 12 12 12 11 11 11 12
9 9 9 8 8 7 9 11 12 10 11 12 13 13 13 10 14 13 15 17 18 20 16 15 16 16 15 13 13 13 13 12 12 10 10 11 8 10 9 9 10 12 12
9 9 8 8 8 8 12 14 15 12 11 12 13 14 13 14 12 12 13 14 15 15 15 12 16 16 16 15 14 14 15 14 12 10 10 12 8 8 8 9 9 11 11
8 7 8 10 10 11 13 16 14 12 12 13 13 13 12 13 15 18 15 15 16 15 14 21 23 23 23 21 19 10 11 11 11 11 11 11 9 9 9 9 9 14 16
7 7 9 9 11 11 14 16 14 10 11 10 12 12 15 15 18 18 13 13 14 13 12 11 11 15 20 19 22 18 12 12 10 10 11 10 9 9 9 7 9 8 8
Wind_Direction
270 274 269 267 263 261 261 257 263 287 298 319 324 326 346 356 27 36 27 16 0 357 341 332 330 328 325 326 321 305 275 250 245 239 231 225 220 214 209 202 202 195 194
273 282 284 281 273 259 252 251 248 242 242 258 258 267 305 345 32 36 37 42 16 8 5 1 350 337 329 326 329 322 313 288 267 254 246 240 232 223 214 207 201 201 199
266 272 276 276 276 269 258 243 238 241 239 225 242 232 230 244 179 100 103 36 53 63 19 6 1 360 356 343 329 319 312 303 277 284 275 257 245 227 220 214 210 204 202
260 264 263 264 269 261 253 247 243 245 241 232 235 232 231 240 229 275 181 135 82 56 37 17 10 10 6 358 350 331 317 307 296 286 273 274 259 243 230 221 219 213 207
257 256 260 261 256 253 244 241 241 233 238 233 233 230 223 223 218 234 234 181 117 89 35 52 25 17 10 5 1 347 317 295 304 293 283 260 259 255 252 245 230 216 211
270 259 260 260 255 250 246 232 237 229 242 239 233 237 236 229 219 221 212 241 147 116 85 52 19 9 3 353 346 343 340 319 292 317 338 7 286 259 254 248 250 236 216
273 267 267 270 262 253 247 241 241 239 228 228 239 245 252 242 234 220 206 212 195 132 121 85 8 340 327 342 334 335 331 324 320 304 303 347 318 313 255 282 256 243 246
292 276 267 269 267 264 256 250 237 239 244 212 223 248 256 226 225 216 207 205 198 159 146 65 353 340 324 319 332 328 331 329 309 298 278 277 280 298 275 259 260 231 224
313 305 292 281 277 270 262 255 245 239 242 220 222 226 234 245 247 186 213 216 184 175 148 205 320 326 322 316 319 328 322 314 308 310 277 247 238 265 288 270 272 281 234
321 319 308 296 287 278 270 264 261 252 245 251 216 238 256 296 241 246 193 214 196 197 218 205 272 271 317 308 325 306 307 310 303 290 297 261 239 244 263 285 277 306 280
319 314 307 302 293 286 279 274 273 264 258 253 239 194 207 183 197 251 253 226 211 256 237 257 289 244 292 292 306 323 328 323 322 305 286 255 243 246 255 276 306 279 326
320 315 313 325 352 7 8 22 49 49 53 73 61 15 243 196 204 238 239 235 283 289 276 271 271 284 283 293 292 323 330 331 342 348 309 231 243 245 246 255 303 327 332
314 327 340 50 71 82 82 81 77 64 51 35 35 49 35 21 65 39 235 266 272 281 282 270 278 257 260 278 287 293 340 2 345 348 9 336 349 277 238 249 280 304 320
292 282 90 71 55 73 87 102 116 92 71 59 40 25 12 1 263 236 249 273 286 279 276 283 287 274 266 270 286 271 269 358 335 321 42 1 28 6 350 300 276 296 304
285 350 353 358 4 16 23 4 24 67 73 95 156 197 207 211 206 200 219 232 255 278 274 274 279 282 279 277 266 271 260 303 287 314 84 54 2 349 329 328 321 305 299
349 339 358 33 29 26 18 7 358 7 353 205 254 255 250 244 237 232 238 241 243 258 274 274 271 274 279 280 271 266 260 226 232 214 320 332 337 341 327 335 334 311 311
353 20 23 21 11 4 345 276 258 260 274 301 261 254 254 259 262 257 258 264 266 266 270 276 275 267 269 269 269 265 263 264 257 223 225 245 256 275 292 301 304 306 292
32 22 12 4 341 310 291 295 304 310 298 294 288 279 277 283 280 281 278 274 273 275 274 275 275 272 265 268 266 269 268 265 266 247 231 230 227 241 256 262 275 291 289
8 0 343 317 322 325 319 320 322 303 281 278 282 282 287 290 286 285 281 278 275 271 270 271 273 272 266 269 267 262 259 259 263 270 248 237 238 237 243 245 249 258 271
338 326 318 317 308 313 308 306 302 283 281 286 290 288 289 286 287 287 282 279 278 275 272 268 268 268 265 258 259 263 258 250 256 259 258 261 268 253 232 228 238 242 246
316 318 318 318 323 317 313 309 302 306 303 301 295 290 288 287 282 276 277 274 273 268 267 267 268 268 265 259 254 261 261 264 258 259 260 261 263 258 253 224 250 239 253
339 339 337 336 332 335 355 32 342 312 302 296 296 297 295 290 280 278 273 270 270 274 268 265 264 264 266 265 262 260 262 261 264 249 255 258 260 257 255 250 247 237 235
335 338 337 335 335 344 352 331 325 304 299 296 296 294 291 287 284 282 279 274 271 267 265 271 271 266 267 263 261 256 254 257 261 261 258 265 267 264 261 255 231 231 241
330 329 333 342 331 324 328 324 317 300 296 297 295 290 289 291 289 291 282 278 273 267 259 249 251 261 262 262 260 257 259 264 266 262 260 264 264 253 256 253 233 238 235
327 336 336 329 323 320 327 321 318 308 300 300 295 293 288 288 285 287 285 278 273 272 259 253 255 259 260 258 254 266 245 246 251 255 251 255 259 258 256 252 253 242 241
319 329 327 327 321 316 320 324 321 310 302 299 298 292 284 278 287 289 290 293 287 287 293 276 261 253 250 252 241 241 246 242 239 249 245 247 252 249 256 226 242 235 238